TimeCDT,TemperatureF,Dew PointF,Humidity,Sea Level PressureIn,VisibilityMPH,Wind Direction,Wind SpeedMPH,Gust SpeedMPH,PrecipitationIn,Events,Conditions,WindDirDegrees,DateUTC
12:54 AM,55.0,46.0,72,30.22,10.0,Calm,Calm,-,N/A,,Overcast,0,2012-10-08 05:54:00
1:54 AM,55.0,46.9,74,30.22,10.0,Calm,Calm,-,N/A,,Overcast,0,2012-10-08 06:54:00
2:54 AM,55.0,46.9,74,30.22,10.0,Calm,Calm,-,N/A,,Overcast,0,2012-10-08 07:54:00
3:54 AM,55.0,46.9,74,30.22,10.0,Calm,Calm,-,N/A,,Overcast,0,2012-10-08 08:54:00
4:54 AM,54.0,48.0,80,30.22,10.0,Variable,4.6,-,N/A,,Overcast,0,2012-10-08 09:54:00
5:54 AM,54.0,46.9,77,30.23,10.0,Variable,3.5,-,N/A,,Overcast,0,2012-10-08 10:54:00
6:54 AM,52.0,45.0,77,30.26,10.0,Variable,3.5,-,N/A,,Overcast,0,2012-10-08 11:54:00
7:19 AM,51.8,44.6,76,30.18,10.0,Calm,Calm,-,N/A,,Overcast,0,2012-10-08 12:19:00
7:43 AM,51.8,44.6,76,30.19,10.0,North,4.6,-,N/A,,Overcast,360,2012-10-08 12:43:00
7:54 AM,52.0,45.0,77,30.28,10.0,Variable,3.5,-,N/A,,Overcast,0,2012-10-08 12:54:00
8:54 AM,52.0,46.0,80,31.02,10.0,Variable,5.8,-,N/A,,Overcast,0,2012-10-08 13:54:00
9:54 AM,54.0,46.0,75,30.30,10.0,NE,5.8,-,N/A,,Overcast,50,2012-10-08 14:54:00
10:54 AM,59.0,46.0,62,30.30,10.0,Variable,5.8,-,N/A,,Clear,0,2012-10-08 15:54:00
11:54 AM,62.1,46.0,56,30.28,10.0,Variable,5.8,-,N/A,,Clear,0,2012-10-08 16:54:00
12:54 PM,64.9,46.9,52,30.26,10.0,Variable,5.8,-,N/A,,Mostly Cloudy,0,2012-10-08 17:54:00
1:54 PM,66.9,46.9,49,30.23,10.0,Variable,4.6,-,N/A,,Partly Cloudy,0,2012-10-08 18:54:00
2:54 PM,63.0,46.9,56,30.20,10.0,Variable,4.6,-,N/A,,Clear,0,2012-10-08 19:54:00
3:54 PM,68.0,48.9,50,30.19,10.0,Variable,4.6,-,N/A,,Partly Cloudy,0,2012-10-08 20:54:00
4:54 PM,66.0,46.9,50,30.18,10.0,Variable,3.5,-,N/A,,Clear,0,2012-10-08 21:54:00
5:54 PM,63.0,48.0,58,30.19,10.0,Variable,4.6,-,N/A,,Clear,0,2012-10-08 22:54:00
6:54 PM,57.9,48.9,72,30.19,10.0,Calm,Calm,-,N/A,,Clear,0,2012-10-08 23:54:00
7:54 PM,54.0,48.9,83,30.92,10.0,Calm,Calm,-,N/A,,Clear,0,2012-10-09 00:54:00
8:54 PM,53.1,48.0,83,30.94,10.0,Calm,Calm,-,N/A,,Clear,0,2012-10-09 01:54:00
9:54 PM,51.1,48.0,89,30.95,10.0,Calm,Calm,-,N/A,,Clear,0,2012-10-09 02:54:00
10:54 PM,50.0,46.9,89,30.22,10.0,Calm,Calm,-,N/A,,Clear,0,2012-10-09 03:54:00
11:54 PM,48.9,46.9,93,30.21,10.0,Calm,Calm,-,N/A,,Clear,0,2012-10-09 04:54:00